This demonstration page uses our WeatherBlox Daily Observations layout. Learn more.

Hourly Observations for January 15, 2019

Temp ( °F °C ) Dew Point ( °F °C ) Humidity (%) Winds ( mph kmh ) Pressure ( in mb ) Visibility ( mi km ) Precip ( " mm )
12:15 am 00:15 Clear 21 -6 21 -6 100 100 Calm 30.24 1024 7 11.265408 0 0
12:35 am 00:35 Clear with Mist and Fog 19 -7 19 -7 100 100 NNW 6 9 30.27 1025 5 8.04672 0 0
12:55 am 00:55 Clear 18 -8 18 -8 100 100 NW 7 11 30.24 1024 10 16.09344 0 0
1:15 am 01:15 Clear 18 -8 18 -8 100 100 NW 7 11 30.24 1024 10 16.09344 0 0
1:35 am 01:35 Clear 18 -8 18 -8 100 100 WNW 5 7 30.27 1025 10 16.09344 0 0
1:55 am 01:55 Clear 19 -7 19 -7 100 100 NW 6 9 30.27 1025 7 11.265408 0 0
2:15 am 02:15 Clear with Mist and Fog 21 -6 21 -6 100 100 Calm 30.24 1024 5 8.04672 0 0
2:35 am 02:35 Clear with Mist and Fog 23 -5 23 -5 100 100 NW 3 6 30.24 1024 4 6.437376 0 0
2:55 am 02:55 Mostly Cloudy with Mist and Fog 21 -6 21 -6 100 100 NNW 3 6 30.24 1024 1.75 2.816352 0 0
3:15 am 03:15 Mostly Cloudy with Mist and Fog 21 -6 21 -6 100 100 NNW 5 7 30.24 1024 1.5 2.414016 0 0
3:35 am 03:35 Clear with Mist and Fog 21 -6 21 -6 100 100 NNW 6 9 30.21 1023 5 8.04672 0 0
3:55 am 03:55 Clear with Mist and Fog 19 -7 19 -7 100 100 NNW 5 7 30.21 1023 5 8.04672 0 0
4:15 am 04:15 Clear with Mist and Fog 18 -8 18 -8 100 100 NNW 5 7 30.24 1024 3 4.828032 0 0
4:35 am 04:35 Clear with Mist and Fog 19 -7 19 -7 100 100 NNW 5 7 30.21 1023 4 6.437376 0 0
4:55 am 04:55 Clear with Mist and Fog 18 -8 18 -8 100 100 N 5 7 30.24 1024 4 6.437376 0 0
5:15 am 05:15 Clear with Mist and Fog 18 -8 18 -8 100 100 NNW 6 9 30.24 1024 5 8.04672 0 0
5:35 am 05:35 Clear 18 -8 18 -8 100 100 NNW 7 11 30.24 1024 7 11.265408 0 0
5:55 am 05:55 Clear 19 -7 19 -7 100 100 NNW 6 9 30.21 1023 7 11.265408 0 0
6:15 am 06:15 Clear 18 -8 18 -8 100 100 NNW 6 9 30.24 1024 7 11.265408 0 0
6:35 am 06:35 Clear 18 -8 18 -8 100 100 NNW 5 7 30.27 1025 7 11.265408 0 0
6:55 am 06:55 Clear 18 -8 18 -8 100 100 NNW 5 7 30.27 1025 10 16.09344 0 0
7:15 am 07:15 Clear 18 -8 18 -8 100 100 NNW 5 7 30.27 1025 10 16.09344 0 0
7:35 am 07:35 Sunny 18 -8 18 -8 100 100 NNW 3 6 30.27 1025 7 11.265408 0 0
7:55 am 07:55 Sunny 18 -8 18 -8 100 100 Calm 30.27 1025 7 11.265408 0 0
8:15 am 08:15 Sunny 21 -6 21 -6 100 100 Calm 30.24 1024 7 11.265408 0 0
8:35 am 08:35 Sunny 23 -5 23 -5 100 100 N 3 6 30.24 1024 7 11.265408 0 0
8:55 am 08:55 Sunny with Mist and Fog 23 -5 23 -5 100 100 Calm 30.27 1025 5 8.04672 0 0
9:15 am 09:15 Sunny 25 -4 25 -4 100 100 Calm 30.27 1025 7 11.265408 0 0
9:35 am 09:35 Sunny 28 -2 28 -2 100 100 Calm 30.27 1025 10 16.09344 0 0
9:55 am 09:55 Sunny 32 0 30 -1 93 93 Calm 30.3 1026 10 16.09344 0 0
10:15 am 10:15 Sunny 32 0 30 -1 93 93 N 7 11 30.3 1026 10 16.09344 0 0
10:35 am 10:35 Partly Cloudy 34 1 28 -2 81 81 NNW 7 11 30.3 1026 10 16.09344 0 0
10:55 am 10:55 Mostly Cloudy 34 1 28 -2 81 81 NNW 9 15 30.3 1026 10 16.09344 0.01 0.254
11:15 am 11:15 Cloudy 34 1 28 -2 81 81 N 5 7 30.27 1025 10 16.09344 0 0
11:35 am 11:35 Cloudy 34 1 28 -2 81 81 NW 8 13 30.27 1025 10 16.09344 0 0
11:55 am 11:55 Cloudy 34 1 28 -2 81 81 N 13 20 30.24 1024 10 16.09344 0 0
12:15 pm 12:15 Cloudy 36 2 28 -2 75 75 NW 8 13 30.24 1024 10 16.09344 0 0
12:35 pm 12:35 Cloudy 36 2 28 -2 75 75 NNW 8 13 30.24 1024 10 16.09344 0 0
12:55 pm 12:55 Mostly Cloudy 36 2 28 -2 75 75 NW 14 22 30.21 1023 10 16.09344 0 0
1:15 pm 13:15 Partly Cloudy 36 2 28 -2 75 75 NNW 14 22 30.21 1023 10 16.09344 0 0
1:35 pm 13:35 Sunny 36 2 28 -2 75 75 NNW 12 19 30.21 1023 10 16.09344 0 0
1:55 pm 13:55 Sunny 36 2 28 -2 75 75 NNW 7 11 30.21 1023 10 16.09344 0 0
2:15 pm 14:15 Sunny 36 2 28 -2 75 75 NNW 8 13 30.21 1023 10 16.09344 0 0
2:35 pm 14:35 Partly Cloudy 36 2 28 -2 75 75 NNW 10 17 30.21 1023 10 16.09344 0 0
2:55 pm 14:55 Partly Cloudy 37 3 28 -2 70 70 NW 12 19 30.21 1023 10 16.09344 0 0
3:15 pm 15:15 Partly Cloudy 36 2 28 -2 75 75 NNW 12 19 30.21 1023 10 16.09344 0.01 0.254
3:35 pm 15:35 Sunny 36 2 28 -2 75 75 WNW 10 17 30.21 1023 10 16.09344 0.01 0.254
3:55 pm 15:55 Sunny 36 2 28 -2 75 75 NW 9 15 30.21 1023 10 16.09344 0.01 0.254
4:15 pm 16:15 Sunny 36 2 28 -2 75 75 NW 10 17 30.21 1023 10 16.09344 0 0
4:35 pm 16:35 Sunny 36 2 27 -3 70 70 NNW 8 13 30.21 1023 10 16.09344 0 0
4:55 pm 16:55 Sunny 34 1 27 -3 75 75 NW 8 13 30.21 1023 10 16.09344 0 0
5:15 pm 17:15 Clear 34 1 27 -3 75 75 NW 7 11 30.21 1023 10 16.09344 0 0
5:35 pm 17:35 Clear 34 1 27 -3 75 75 Calm 30.21 1023 10 16.09344 0 0
5:55 pm 17:55 Clear 32 0 27 -3 80 80 Calm 30.21 1023 10 16.09344 0 0
6:15 pm 18:15 Clear 32 0 27 -3 80 80 Calm 30.21 1023 10 16.09344 0 0
6:35 pm 18:35 Clear 30 -1 27 -3 86 86 W 3 6 30.21 1023 10 16.09344 0 0
6:55 pm 18:55 Clear 30 -1 27 -3 86 86 NW 5 7 30.21 1023 10 16.09344 0 0
7:15 pm 19:15 Clear 32 0 27 -3 80 80 NNW 7 11 30.21 1023 10 16.09344 0 0
7:35 pm 19:35 Clear 32 0 27 -3 80 80 Calm 30.21 1023 10 16.09344 0 0
7:55 pm 19:55 Clear 32 0 27 -3 80 80 N 3 6 30.21 1023 10 16.09344 0 0
8:15 pm 20:15 Clear 30 -1 25 -4 80 80 NNW 7 11 30.21 1023 10 16.09344 0 0
8:35 pm 20:35 Clear 32 0 27 -3 80 80 SSE 3 6 30.21 1023 10 16.09344 0 0
8:55 pm 20:55 Clear 30 -1 25 -4 80 80 Calm 30.21 1023 10 16.09344 0 0
9:15 pm 21:15 Clear 28 -2 23 -5 80 80 Calm 30.21 1023 10 16.09344 0 0
9:35 pm 21:35 Clear 30 -1 27 -3 86 86 WNW 5 7 30.21 1023 10 16.09344 0 0
9:55 pm 21:55 Clear 30 -1 25 -4 80 80 Calm 30.21 1023 10 16.09344 0 0
10:15 pm 22:15 Clear 30 -1 27 -3 86 86 S 5 7 30.21 1023 10 16.09344 0 0
10:35 pm 22:35 Clear 28 -2 25 -4 86 86 Calm 30.21 1023 10 16.09344 0 0
10:55 pm 22:55 Clear 27 -3 25 -4 93 93 SW 3 6 30.21 1023 10 16.09344 0 0
11:15 pm 23:15 Clear 25 -4 23 -5 93 93 Calm 30.21 1023 10 16.09344 0 0
11:35 pm 23:35 Clear 25 -4 25 -4 100 100 Calm 30.18 1022 10 16.09344 0 0
11:55 pm 23:55 Clear 25 -4 23 -5 93 93 Calm 30.18 1022 10 16.09344 0 0

Powered by AerisWeather